(297343) = 1999 XU140

Discovered at Kitt Peak on 1999-12-02 by Spacewatch.

Orbit

Orbit type: Main Belt

Note: WebGL enabled browser required.

epoch2023-09-13.0
epoch JD2460200.5
perihelion date2020-09-18.94224
perihelion JD2459111.44224
argument of perihelion (°)184.40596
ascending node (°)271.73689
inclination (°)4.49785
eccentricity0.2222439
perihelion distance (AU)2.0104056
Tisserand w.r.t. Jupiter3.4
ΔV w.r.t. Earth (km/sec)9.0
semimajor axis (AU)2.5848792
mean anomaly (°)258.28214
mean daily motion (°/day)0.23716110
aphelion distance (AU)3.159
period (years)4.16
P-vector [x]-0.10677135
P-vector [y]0.91461706
P-vector [z]0.38996861
Q-vector [x]-0.99118897
Q-vector [y]-0.06699022
Q-vector [z]-0.11426608
absolute magnitude17.05
phase slope0.15
uncertainty0
referenceMPO 779134
observations used381
oppositions11
arc length (days)8712
first opposition used1999
last opposition used2023
residual rms (arc-secs)0.75
perturbers coarse indicatorM-v
perturbers precise indicator003Ek
first observation date used1999-12-02.0
last observation date used2023-10-09.0
computer nameMPCLINUX
JD of orbit computation2456406.148039
perihelion JD uncertainty (days)3.7831E-04
argument of perihelion uncertainty (°)1.2734E-04
ascending node uncertainty (°)8.5108E-05
inclination uncertainty (°)7.0912E-06
eccentricity uncertainty 1.0427E-07
perihelion distance uncertainty (AU)3.0785E-07
Minimum Orbit Intersection Distances (in AU)
for orbit epoch: 2460200.5, reference: E2023-TC9
Mercury1.70116
Venus1.29136
Earth1.02592
Mars0.41641
Jupiter2.03051
Saturn6.91746
Uranus15.9291
Neptune27.1483

Observations

389 total observations over interval: 1999 12 02.45147 – 2023 10 09.266698
These data are available for download (format description).

Date (UT) J2000 RA J2000 Dec Magn Location Ref
1999 12 02.45147 07 59 47.91 +19 59 34.5 21.5 V 691 – Steward Observatory, Kitt Peak-Spacewatch MPS 9028
1999 12 02.47357 07 59 47.97 +19 59 29.9 20.6 V 691 – Steward Observatory, Kitt Peak-Spacewatch MPS 9028
1999 12 02.49563 07 59 48.04 +19 59 25.0 20.4 V 691 – Steward Observatory, Kitt Peak-Spacewatch MPS 9028
1999 12 08.40930 07 59 37.76 +19 40 13.1 20.4 V 691 – Steward Observatory, Kitt Peak-Spacewatch MPS 9028
1999 12 08.44252 07 59 37.38 +19 40 06.9 20.4 V 691 – Steward Observatory, Kitt Peak-Spacewatch MPS 9028
1999 12 08.46599 07 59 37.07 +19 40 02.7 20.6 V 691 – Steward Observatory, Kitt Peak-Spacewatch MPS 9028
1999 12 15.35339 07 57 43.52 +19 21 04.5 20.3 V 691 – Steward Observatory, Kitt Peak-Spacewatch MPS 27749
1999 12 15.37571 07 57 42.91 +19 21 01.2 20.3 V 691 – Steward Observatory, Kitt Peak-Spacewatch MPS 27749
1999 12 15.39837 07 57 42.30 +19 20 57.8 20.3 V 691 – Steward Observatory, Kitt Peak-Spacewatch MPS 27749
2000 01 05.29592 07 42 37.11 +18 44 06.0 19.1   704 – Lincoln Laboratory ETS, New Mexico MPS 27749
2000 01 05.31061 07 42 36.25 +18 44 04.7 19.3   704 – Lincoln Laboratory ETS, New Mexico MPS 27749
2000 01 05.32520 07 42 35.31 +18 44 04.2 19.1   704 – Lincoln Laboratory ETS, New Mexico MPS 27749
2000 01 05.33976 07 42 34.41 +18 44 02.6 19.3   704 – Lincoln Laboratory ETS, New Mexico MPS 27749
2000 01 05.35434 07 42 33.51 +18 44 01.9 19.6   704 – Lincoln Laboratory ETS, New Mexico MPS 27749
2003 11 20.33347 05 19 32.36 +26 15 09.1 19.9 C 704 – Lincoln Laboratory ETS, New Mexico MPS 290104
2003 11 20.35962 05 19 31.29 +26 15 04.3 19.5 C 704 – Lincoln Laboratory ETS, New Mexico MPS 290104
2003 11 20.37250 05 19 30.67 +26 15 00.2 19.4 C 704 – Lincoln Laboratory ETS, New Mexico MPS 290104
2003 11 20.38569 05 19 29.98 +26 14 58.7 19.1 C 704 – Lincoln Laboratory ETS, New Mexico MPS 290104
2003 11 24.25933 05 16 38.95 +26 03 24.5 19.9   704 – Lincoln Laboratory ETS, New Mexico MPS 94492
2003 11 24.27214 05 16 38.35 +26 03 22.2 20.0   704 – Lincoln Laboratory ETS, New Mexico MPS 94492
2003 11 24.28473 05 16 37.75 +26 03 20.1 20.2   704 – Lincoln Laboratory ETS, New Mexico MPS 94492
2003 11 24.29761 05 16 37.08 +26 03 18.1 19.9   704 – Lincoln Laboratory ETS, New Mexico MPS 94492
2003 11 24.31010 05 16 36.42 +26 03 14.6 20.2   704 – Lincoln Laboratory ETS, New Mexico MPS 94492
2003 12 18.27552 04 54 01.57 +24 21 33.3 19.5   704 – Lincoln Laboratory ETS, New Mexico MPS 94492
2003 12 18.28961 04 54 00.71 +24 21 30.0 20.2   704 – Lincoln Laboratory ETS, New Mexico MPS 94492
2003 12 18.30364 04 53 59.90 +24 21 25.3 20.3   704 – Lincoln Laboratory ETS, New Mexico MPS 94492
2003 12 18.33318 04 53 58.12 +24 21 16.6 19.9   704 – Lincoln Laboratory ETS, New Mexico MPS 94492
2003 12 21.27272 04 51 19.95 +24 06 43.2 19.3   704 – Lincoln Laboratory ETS, New Mexico MPS 94492
2003 12 21.29932 04 51 18.48 +24 06 35.5 19.7   704 – Lincoln Laboratory ETS, New Mexico MPS 94492
2003 12 21.31265 04 51 17.75 +24 06 32.7 19.7   704 – Lincoln Laboratory ETS, New Mexico MPS 94492
2003 12 21.32604 04 51 17.01 +24 06 27.0 19.5   704 – Lincoln Laboratory ETS, New Mexico MPS 94492
2003 12 24.22182 04 48 51.98 +23 52 09.1 19.4   704 – Lincoln Laboratory ETS, New Mexico MPS 94492
2003 12 24.23507 04 48 51.30 +23 52 06.2 19.7   704 – Lincoln Laboratory ETS, New Mexico MPS 94492
2003 12 24.24815 04 48 50.56 +23 52 01.5 19.5   704 – Lincoln Laboratory ETS, New Mexico MPS 94492
2003 12 29.16922 04 45 14.21 +23 28 14.9 20.0 V 691 – Steward Observatory, Kitt Peak-Spacewatch MPS 95666
2003 12 29.19773 04 45 12.99 +23 28 06.9 20.1 V 691 – Steward Observatory, Kitt Peak-Spacewatch MPS 95666
2003 12 29.22483 04 45 11.84 +23 27 59.3 20.0 V 691 – Steward Observatory, Kitt Peak-Spacewatch MPS 95666
2007 09 26.29884 03 08 35.66 +23 52 57.0 20.2 V G96 – Mt. Lemmon Survey MPS 218040
2007 09 26.30602 03 08 35.70 +23 52 58.2 19.9 V G96 – Mt. Lemmon Survey MPS 218040
2007 09 26.32590 03 08 35.73 +23 53 00.0 20.4 V G96 – Mt. Lemmon Survey MPS 218040
2007 09 26.33329 03 08 35.73 +23 53 00.5 20.5 V G96 – Mt. Lemmon Survey MPS 218040
2007 10 12.31934 03 05 17.51 +23 55 13.0 21.0   704 – Lincoln Laboratory ETS, New Mexico MPS 220148
2007 10 12.33054 03 05 17.14 +23 55 11.9 20.1   704 – Lincoln Laboratory ETS, New Mexico MPS 220148
2007 10 12.34174 03 05 16.76 +23 55 09.8 20.4   704 – Lincoln Laboratory ETS, New Mexico MPS 220148
2007 10 16.35328 03 03 10.80 +23 48 30.3 19.7 V G96 – Mt. Lemmon Survey MPS 220148
2007 10 16.36346 03 03 10.44 +23 48 29.2 19.6 V G96 – Mt. Lemmon Survey MPS 220148
2007 10 16.37372 03 03 10.04 +23 48 28.1 19.3 V G96 – Mt. Lemmon Survey MPS 220148
2007 10 16.38404 03 03 09.64 +23 48 26.5 19.5 V G96 – Mt. Lemmon Survey MPS 220148
2007 10 21.37209 02 59 55.21 +23 35 47.6   691 – Steward Observatory, Kitt Peak-Spacewatch MPS 222363
2007 10 21.38972 02 59 54.40 +23 35 44.2   691 – Steward Observatory, Kitt Peak-Spacewatch MPS 222363
2007 10 21.40736 02 59 53.61 +23 35 40.9   691 – Steward Observatory, Kitt Peak-Spacewatch MPS 222363
2007 11 02.18386 02 50 07.69 +22 47 10.2 19.6 V 691 – Steward Observatory, Kitt Peak-Spacewatch MPS 223304
2007 11 02.20151 02 50 06.69 +22 47 05.1 19.6 V 691 – Steward Observatory, Kitt Peak-Spacewatch MPS 223304
2007 11 02.21917 02 50 05.67 +22 46 59.6 19.6 V 691 – Steward Observatory, Kitt Peak-Spacewatch MPS 223304
2007 11 02.42899 02 49 53.58 +22 45 54.0 19.3 V 703 – Catalina Sky Survey MPS 224570
2007 11 02.43565 02 49 53.11 +22 45 51.9 19.6 V 703 – Catalina Sky Survey MPS 224570
2007 11 02.44232 02 49 52.78 +22 45 49.7 18.8 V 703 – Catalina Sky Survey MPS 224570
2007 11 02.44897 02 49 52.42 +22 45 47.8 18.9 V 703 – Catalina Sky Survey MPS 224570
2007 11 06.14520 02 46 25.96 +22 25 33.9   691 – Steward Observatory, Kitt Peak-Spacewatch MPS 224570
2007 11 06.16637 02 46 24.73 +22 25 26.4   691 – Steward Observatory, Kitt Peak-Spacewatch MPS 224571
2007 11 06.18406 02 46 23.69 +22 25 21.0   691 – Steward Observatory, Kitt Peak-Spacewatch MPS 224571
2007 11 07.26045 02 45 22.44 +22 19 05.0 19.5   704 – Lincoln Laboratory ETS, New Mexico MPS 224571
2007 11 07.27271 02 45 21.78 +22 19 01.1 19.5   704 – Lincoln Laboratory ETS, New Mexico MPS 224571
2007 11 07.28594 02 45 20.92 +22 18 56.5 19.9   704 – Lincoln Laboratory ETS, New Mexico MPS 224571
2007 11 07.29826 02 45 20.17 +22 18 52.2 19.5   704 – Lincoln Laboratory ETS, New Mexico MPS 224571
2007 11 07.31061 02 45 19.48 +22 18 47.6 19.5   704 – Lincoln Laboratory ETS, New Mexico MPS 224571
2007 11 07.32660 02 45 18.61 +22 18 42.8 19.2 V 703 – Catalina Sky Survey MPS 224571
2007 11 07.34083 02 45 17.78 +22 18 37.8 19.3 V 703 – Catalina Sky Survey MPS 224571
2007 11 07.35507 02 45 16.77 +22 18 32.7 19.5 V 703 – Catalina Sky Survey MPS 224571
2007 11 07.36932 02 45 16.02 +22 18 27.1 19.8 V 703 – Catalina Sky Survey MPS 224571
2007 11 17.92331 02 35 32.08 +21 10 51.2 18.9   A77 – Observatoire Chante-Perdrix, Dauban MPS 228170
2007 11 17.94976 02 35 30.63 +21 10 40.4 19.1   A77 – Observatoire Chante-Perdrix, Dauban MPS 228170
2007 11 17.97619 02 35 29.19 +21 10 29.5 19.1   A77 – Observatoire Chante-Perdrix, Dauban MPS 228170
2007 11 18.22334 02 35 16.48 +21 08 51.1 19.8   704 – Lincoln Laboratory ETS, New Mexico MPS 228170
2007 11 18.23576 02 35 15.85 +21 08 45.9 19.6   704 – Lincoln Laboratory ETS, New Mexico MPS 228170
2007 11 18.24836 02 35 15.17 +21 08 40.9 19.3   704 – Lincoln Laboratory ETS, New Mexico MPS 228170
2007 11 18.26077 02 35 14.45 +21 08 35.7 19.3   704 – Lincoln Laboratory ETS, New Mexico MPS 228170
2007 11 18.27322 02 35 13.79 +21 08 30.8 19.1   704 – Lincoln Laboratory ETS, New Mexico MPS 228170
2007 11 19.07086 02 34 33.29 +21 03 06.3   691 – Steward Observatory, Kitt Peak-Spacewatch MPS 228170
2007 11 19.08851 02 34 32.38 +21 02 59.3   691 – Steward Observatory, Kitt Peak-Spacewatch MPS 228170
2007 11 19.10615 02 34 31.45 +21 02 52.5   691 – Steward Observatory, Kitt Peak-Spacewatch MPS 228170
2008 02 28.15844 03 37 30.14 +19 57 09.9 21.6 V G96 – Mt. Lemmon Survey MPS 239300
2008 02 28.16338 03 37 30.68 +19 57 10.5 21.6 V G96 – Mt. Lemmon Survey MPS 239300
2008 02 28.16833 03 37 31.22 +19 57 11.7 21.0 V G96 – Mt. Lemmon Survey MPS 239300
